Estación de Curicó

Ultimos registro cada 15 minutos 27
Estación Fecha / Hora Temperatura Humedad Lluvia Velocidad Dirección Radiación Presion
27 Curicó 09-05-2026 06:30 7,3 93,6 0 1 236 0,6 992,9
26 Curicó 09-05-2026 06:15 7,5 93,5 0 1 234 0,6 992,7
25 Curicó 09-05-2026 06:00 7,7 93,3 0 1 225 0,6 992,8
24 Curicó 09-05-2026 05:45 8,2 93,2 0 1 223 0,6 992,7
23 Curicó 09-05-2026 05:30 8,4 93,2 0 1 220 0,6 992,7
22 Curicó 09-05-2026 05:15 8,5 93,2 0 1 216 0,6 992,7
21 Curicó 09-05-2026 05:00 8,5 93,5 0 1 219 0,6 992,7
20 Curicó 09-05-2026 04:45 8,7 93,7 0 1 220 0,6 992,5
19 Curicó 09-05-2026 04:30 8,8 94 0 1 204 0,6 992,7
18 Curicó 09-05-2026 04:15 8,8 94,6 0 1,3 213 0,6 992,8
17 Curicó 09-05-2026 04:00 8,8 95,3 0 1,3 215 0,6 992,9
16 Curicó 09-05-2026 03:45 8,8 95,6 0 1 218 0,6 993,1
15 Curicó 09-05-2026 03:30 8,8 95,8 0 1 225 0,6 993,1
14 Curicó 09-05-2026 03:15 8,9 95,7 0 1,3 225 0,6 993,1
13 Curicó 09-05-2026 03:00 9 95,3 0 0,7 225 0,6 993,3
12 Curicó 09-05-2026 02:45 9,1 95,1 0 1 227 0,6 993,2
11 Curicó 09-05-2026 02:30 9,3 94,7 0 1 233 0,6 993,3
10 Curicó 09-05-2026 02:15 9,5 94,5 0 1,3 227 0,6 993,5
9 Curicó 09-05-2026 02:00 9,7 94,4 0 1 225 0,6 993,5
8 Curicó 09-05-2026 01:45 9,8 94,3 0 1 223 0,6 993,5
7 Curicó 09-05-2026 01:30 9,8 94,2 0 1,3 222 0,6 993,5
6 Curicó 09-05-2026 01:15 10 93,9 0 1,3 225 0,6 993,6
5 Curicó 09-05-2026 01:00 10,1 93,6 0 1 234 0,6 993,5
4 Curicó 09-05-2026 00:45 10,1 93,7 0 1,3 227 0,6 993,5
3 Curicó 09-05-2026 00:30 10,3 93,6 0 1 222 0,6 993,4
2 Curicó 09-05-2026 00:15 10,3 93,4 0 1,3 226 0,6 993,4
1 Curicó 09-05-2026 00:00 10,4 93,3 0 1 225 0,6 993,4